Location: Lane
(33.5226°N, 79.8788°W)
Time: 18:35:30
(UTC+00:00)

Courier 1B Rocket - Pass Details

Date: 08 October 2022
Orbit: 920 x 1202 km, 28.3° (Epoch: 01 December)

Event Time Altitude Azimuth Distance (km) Brightness Sun altitude
Rises 02:13:56 0° 270° (W) 3,741 8.8 -41.3°
Reaches altitude 10° 02:16:52 10° 262° (W) 2,746 7.8 -41.8°
Enters shadow 02:18:50 19° 253° (WSW) 2,138 7.1 -42.2°
Maximum altitude 02:22:52 38° 197° (SSW) 1,418 - -42.9°
Drops below altitude 10° 02:28:36 10° 131° (SE) 2,619 - -44.0°
Sets 02:31:21 0° 123° (ESE) 3,547 - -44.5°
